Regional Weather Roundup
Issued by NWS

Current Version | Previous Version | Text Only | Print | Product List | Glossary On
Versions: 1 2 3 4 5 6 7 8 9 10 11 12 13 14 15 16 17 18 19 20 21 22 23 24 25 26 27 28 29 30 31 32 33 34 35 36 37 38 39 40 41 42 43 44 45 46 47 48 49 50
000
ASPQ40 PGUM 280314
RWRPQ
WEATHER ROUNDUP FOR THE MARIANAS AND MICRONESIA
NATIONAL WEATHER SERVICE TIYAN GU
100 PM CHST THU MAY 28 2015

GUZ001>004-280400-
MARIANA ISLANDS-

CITY           SKY/WX    TMP DP  RH WIND       PRES   REMARKS
GUAM AIRPORT   PTSUNNY   86  77  74 SE16G23   29.84S HX  97
ANDERSEN AFB   PTSUNNY   82  77  83 SE12      29.84F HX  91
ROTA AIRPORT   NOT AVBL
TINIAN AP      NOT AVBL
SAIPAN AP      MOSUNNY   86  75  70 SE8G23    29.84F HX  95

$$

PMZ161-280400-
REPUBLIC OF PALAU-

CITY           SKY/WX    TMP DP  RH WIND       PRES   REMARKS
KOROR AP       PTSUNNY   88  77  70 W8        29.82F HX 100
KOROR WSO      PTSUNNY   90  77  66 W7        29.82F HX 102

$$

PMZ171>174-280400-
FEDERATED STATES OF MICRONESIA-

CITY           SKY/WX    TMP DP  RH WIND       PRES   REMARKS
YAP AIRPORT    HVY RAIN  81  77  89 VRB6      29.81F
CHUUK AP       CLOUDY    90  79  70 S10       29.82F HX 105
POHNPEI AP     CLOUDY    88  77  70 E9        29.83F HX 100
POHNPEI WSO    CLOUDY    88  79  74 E12       29.86F HX 102
KOSRAE AP      NOT AVBL

$$

PMZ181-280400-
REPUBLIC OF THE MARSHALL ISLANDS-

CITY           SKY/WX    TMP DP  RH WIND       PRES   REMARKS
KWAJALEIN AP   PTSUNNY   86  75  70 NE6       29.83F HX  95
MAJURO AP      NOT AVBL
MAJURO WSO     LGT RAIN  81  77  89 NE8       29.80F

$$




USA.gov is the U.S. government's official web portal to all federal, state and local government web resources and services.